sat.trackr.live / text

‹ back to catalog

STARLINK-30569

NORAD 58068 · 2023-158T

PAYLOAD ACTIVE UNKNOWN

§ Identity

Operator
Country
US
Launch date
2023-10-13
Launch site
AFETR
Launch vehicle
Mass (kg)
RCS (m²)

Purposes: comms

External: N2YO · Heavens-Above · Gunter

§ Orbital elements

Epoch: 2026-09-19T15:37:16.807872Z

Period
94.27 min
Inclination
43.0041°
Eccentricity
0.0001572
Mean motion
15.27563170 rev/d
Perigee alt
482.0 km
Apogee alt
484.2 km
Semi-major
6,861.2 km
B*
1.4941e-4
RAAN
15.0807°
Arg perigee
267.2124°
Mean anomaly
92.8547°
Rev number
16,319

§ Raw data

STARLINK-305691 58068U 23158T   26262.65088898  .00003849  00000+0  14941-3 0  99912 58068  43.0041  15.0807 0001572 267.2124  92.8547 15.27563170163193

JSON: /api/v1/satellites/58068 · /tle

For live sub-satellite position, see the globe view (requires WebGL).

§ Visibility from observer

Set your observer location to see the next 7 days of passes ≥ 10°. The values pass through the URL so the page stays shareable.

No JS? Fill the form by hand. The geolocation button needs JavaScript.